sat.trackr.live / text

‹ back to catalog

STARLINK-11423 [DTC]

NORAD 61950 · 2024-209M

PAYLOAD ACTIVE UNKNOWN

§ Identity

Operator
Country
US
Launch date
2024-11-14
Launch site
AFWTR
Launch vehicle
Mass (kg)
RCS (m²)

Purposes: comms

External: N2YO · Heavens-Above · Gunter

§ Orbital elements

Epoch: 2026-09-21T21:23:52.778976Z

Period
91.74 min
Inclination
53.1573°
Eccentricity
0.0001552
Mean motion
15.69716449 rev/d
Perigee alt
358.7 km
Apogee alt
360.8 km
Semi-major
6,737.8 km
B*
1.1615e-3
RAAN
124.0589°
Arg perigee
33.4370°
Mean anomaly
326.6746°
Rev number
10,753

§ Raw data

STARLINK-11423 [DTC]1 61950U 24209M   26264.89158309  .00142611  00000+0  11615-2 0  99912 61950  53.1573 124.0589 0001552  33.4370 326.6746 15.69716449107531

JSON: /api/v1/satellites/61950 · /tle

For live sub-satellite position, see the globe view (requires WebGL).

§ Visibility from observer

Set your observer location to see the next 7 days of passes ≥ 10°. The values pass through the URL so the page stays shareable.

No JS? Fill the form by hand. The geolocation button needs JavaScript.